Location: Anumalkud?ru
(16.4847°N, 80.6636°E)
Time: 02:08:18
(UTC+00:00)

BlueWalker 3 - Visible Passes

Search period start: 12 June 2026 00:00
Search period end: 22 June 2026 00:00
Orbit: 447 x 456 km, 53.2° (Epoch: 11 June)

Date Brightness Start Highest point End Pass type
(mag) Time Alt. Az. Time Alt. Az. Time Alt. Az.
12 Jun 5.1 15:47:01 10° NNW 15:47:09 11° NNW 15:47:09 11° NNW visible
13 Jun 3.9 15:10:06 10° NNW 15:11:35 21° N 15:11:35 21° N visible
14 Jun 3.3 14:33:22 10° N 14:36:05 22° NE 14:36:05 22° NE visible
15 Jun 3.8 13:56:53 10° NNE 13:58:58 15° NE 14:00:38 12° E visible
15 Jun 4.6 15:33:24 10° WNW 15:34:17 15° W 15:34:17 15° W visible
16 Jun 2.9 14:55:50 10° NW 14:58:54 36° WSW 14:58:54 36° WSW visible
17 Jun 2.0 14:18:29 10° NW 14:21:58 61° SW 14:23:36 28° SSE visible
18 Jun 1.6 13:41:17 10° NNW 13:44:47 78° NE 13:48:18 10° SE visible
20 Jun 4.6 14:06:19 10° WSW 14:07:26 11° WSW 14:08:33 10° SW visible
